User: anonymous   Login
Location: SAPM � Hemmingford
(45.0500°N, 73.5833°W)
Time: 07:06:11
(UTC-04:00)
Language:

Cosmos 1603 - Orbit

View from above orbital plane
View from above orbital plane
View from above satellite
View from above satellite

Ground track
Ground track

The orbit data is extracted from the following two-line orbital elements,

1 15333U 84106A   18175.15480609  .00000124  00000-0  89943-4 0  9993
2 15333  71.0258  33.4722 0019535 355.3831   4.7108 14.14067942740843
Epoch (UTC): 24 June 2018 03:42:55
Eccentricity: 0.0019535
inclination: 71.0258°
perigee height: 831 km
apogee height: 859 km
right ascension of ascending node: 33.4722°
argument of perigee: 355.3831°
revolutions per day: 14.14067942
mean anomaly at epoch: 4.7108°
orbit number at epoch: 74084

The dashed part of the orbit path shows where the satellite is in the earth's shadow,  

DLR